Regional Weather Roundup
Issued by NWS

Home | Current Version | Previous Version | Text Only | Print | Product List | Glossary Off
Versions: 1 2 3 4 5 6 7 8 9 10 11 12 13 14 15 16 17 18 19 20 21 22 23 24 25 26 27 28 29 30 31 32 33 34 35 36 37 38 39 40 41 42 43 44 45 46 47 48 49 50

000
ASUS43 KMKX 241211
RWRWI

WISCONSIN REGIONAL WEATHER ROUNDUP
NATIONAL WEATHER SERVICE MILWAUKEE/SULLIVAN WI
700 AM CDT SUN JUL 24 2016

NOTE: "FAIR" INDICATES FEW OR NO CLOUDS BELOW 12,000 FEET WITH NO
SIGNIFICANT WEATHER AND/OR OBSTRUCTIONS TO VISIBILITY.

WIZ001-002-006>008-014>016-023>028-241300-
NORTHWEST WISCONSIN

CITY           SKY/WX    TMP DP  RH WIND       PRES   REMARKS
SUPERIOR ARPT  FOG       63  63 100 SW6       29.75S VSB 1/2
6HR MIN TEMP:  59; 6HR MAX TEMP:  63; 6HR PCP:  0.05;

ASHLAND        SUNNY     69  67  93 SW7       29.76S
6HR MIN TEMP:  67; 6HR MAX TEMP:  71; 6HR PCP:  0.02;

HAYWARD        CLOUDY    67  65  93 SW5       29.79R
6HR MIN TEMP:  66; 6HR MAX TEMP:  70; 6HR PCP:  0.34;

SIREN          CLOUDY    66  66 100 SW3       29.79R
CUMBERLAND     PTSUNNY   64  64 100 W3        29.81R
RICE LAKE      SUNNY     68  65  93 CALM      29.81R
6HR MIN TEMP:  67; 6HR MAX TEMP:  69; 6HR PCP:  0.03;

CHETEK         SUNNY     67  67  99 CALM      29.78S
6HR MIN TEMP:  66; 6HR MAX TEMP:  69; 6HR PCP:  0.02;

LADYSMITH      PTSUNNY   70  68  95 S8        29.79F
6HR MIN TEMP:  69; 6HR MAX TEMP:  70; 6HR PCP:  0.35;

EAU CLAIRE     CLOUDY    70  70 100 E5        29.77F FOG
6HR MIN TEMP:  70; 6HR MAX TEMP:  71; 6HR PCP:  0.01;

MENOMONIE      SUNNY     71  71  99 SE5       29.78S
6HR MIN TEMP:  70; 6HR MAX TEMP:  71; 6HR PCP:  0.03;

NEW RICHMOND   CLOUDY    69  69 100 NW5       29.82R
6HR MIN TEMP:  68; 6HR MAX TEMP:  72; 6HR PCP:  0.05;

OSCEOLA        CLOUDY    69  69 100 CALM      29.83R
6HR MIN TEMP:  67; 6HR MAX TEMP:  73;

$$

WIZ003>005-009-010-017-018-241300-
NORTH CENTRAL WISCONSIN

CITY           SKY/WX    TMP DP  RH WIND       PRES   REMARKS
MANITOWISH WTR CLOUDY    66  66 100 W6        29.79R
6HR MIN TEMP:  66; 6HR MAX TEMP:  68; 6HR PCP:  0.10;

ARBOR VITAE    CLOUDY    69  68  95 SW9       29.79R
6HR MIN TEMP:  69; 6HR MAX TEMP:  72; 6HR PCP:  0.14;

WOODRUFF       CLOUDY    69  68  95 SW9       29.79R
6HR MIN TEMP:  69; 6HR MAX TEMP:  72; 6HR PCP:  0.14;

RHINELANDER    MOSUNNY   69  67  93 S6        29.80S
6HR MIN TEMP:  69; 6HR MAX TEMP:  70; 6HR PCP:  0.07;

EAGLE RIVER    CLOUDY    67  67 100 SW3       29.75F
6HR MIN TEMP:  67; 6HR MAX TEMP:  69;

LAND O LAKES   CLOUDY    68  67  96 CALM      29.76F
6HR MIN TEMP:  68; 6HR MAX TEMP:  69; 6HR PCP:  0.04;

PHILLIPS       SUNNY     67  67 100 S5        29.79R
6HR MIN TEMP:  66; 6HR MAX TEMP:  68; 6HR PCP:  0.14;

TOMAHAWK       PTSUNNY   68  67  95 CALM      29.81F FOG
6HR MIN TEMP:  67; 6HR MAX TEMP:  68;

MEDFORD        FOG       69  69 100 CALM      29.81R VSB 1/4
6HR MIN TEMP:  66; 6HR MAX TEMP:  69;

MERRILL        FOG       70  70 100 CALM      29.83R VSB 1/2
6HR MIN TEMP:  69; 6HR MAX TEMP:  70;

$$

WIZ029-030-035-036-043>047-241300-
CENTRAL WISCONSIN

CITY           SKY/WX    TMP DP  RH WIND       PRES   REMARKS
WAUSAU         FOG       70  70 100 SE7       29.79F VSB 1
6HR MIN TEMP:  69; 6HR MAX TEMP:  71; 6HR PCP:  0.01;

MOSINEE        FOG       70  70 100 S5        29.82F VSB 1/4
MARSHFIELD     FOG       72  70  93 S6        29.80F VSB 1/4
6HR MIN TEMP:  70; 6HR MAX TEMP:  72; 6HR PCP: TRACE;

STEVENS POINT  FOG       69  69 100 CALM      29.82F VSB 3/4
6HR MIN TEMP:  68; 6HR MAX TEMP:  69; 6HR PCP:  0.06;

WAUPACA        CLOUDY    73  73 100 CALM      29.82S
6HR MIN TEMP:  73; 6HR MAX TEMP:  73;

WAUTOMA        CLOUDY    72  71  97 SE5       29.82F
6HR MIN TEMP:  71; 6HR MAX TEMP:  72;

WISC RAPIDS    CLOUDY    74  71  91 S5        29.81F FOG
6HR MIN TEMP:  70; 6HR MAX TEMP:  74; 6HR PCP:  0.08;

CAMP DOUGLAS   CLOUDY    75  73  94 S5        29.80S
$$

WIZ011>013-019>022-031-037>040-048>050-241300-
NORTHEAST WISCONSIN

CITY           SKY/WX    TMP DP  RH WIND       PRES   REMARKS
ANTIGO         FOG       69  69 100 CALM      29.83F VSB 1/2
6HR MIN TEMP:  68; 6HR MAX TEMP:  69; 6HR PCP:  0.04;

SHAWANO        CLOUDY    73  71  91 CALM      29.83S
6HR MIN TEMP:  73; 6HR MAX TEMP:  74; 6HR PCP:  0.25;

OCONTO         CLOUDY   N/A N/A N/A CALM      29.83R
STURGEON BAY   CLOUDY    71  69  93 S12       29.84R
6HR MIN TEMP:  69; 6HR MAX TEMP:  72;

GREEN BAY      CLOUDY    72  72 100 S6        29.84R
6HR MIN TEMP:  71; 6HR MAX TEMP:  74; 6HR PCP:  0.40;

MANITOWOC      CLOUDY    71  68  90 S10       29.86R
6HR MIN TEMP:  69; 6HR MAX TEMP:  72;

APPLETON       CLOUDY    72  72 100 S8        29.83R
CLINTONVILLE   CLOUDY    72  70  94 S5        29.82F
OSHKOSH        CLOUDY    72  69  90 S6        29.83S
6HR MIN TEMP:  71; 6HR MAX TEMP:  73; 6HR PCP:  0.31;

$$

WIZ032>034-041-042-053>061-241300-
SOUTHWEST WISCONSIN

CITY           SKY/WX    TMP DP  RH WIND       PRES   REMARKS
LA CROSSE      MOSUNNY   77  74  90 S5        29.78R
6HR MIN TEMP:  74; 6HR MAX TEMP:  77;

SPARTA         PTSUNNY   74  73  96 CALM      29.81R
6HR MIN TEMP:  71; 6HR MAX TEMP:  74;

VIROQUA        SUNNY     75  75 100 SW5       29.82S
6HR MIN TEMP:  70; 6HR MAX TEMP:  75;

BOSCOBEL       MOSUNNY   80  77  90 SW6       29.80S HX  87
6HR MIN TEMP:  72; 6HR MAX TEMP:  80;

PRAIRIE DU CHI MOSUNNY   79  75  87 CALM      29.80S HX  83
6HR MIN TEMP:  72; 6HR MAX TEMP:  79;

PLATTEVILLE    MOSUNNY   76  76 100 S7        29.85S
6HR MIN TEMP:  72; 6HR MAX TEMP:  76;

$$

WIZ056-057-062-063-064-067-068-241300-
SOUTH CENTRAL WISCONSIN

CITY           SKY/WX    TMP DP  RH WIND       PRES   REMARKS
REEDSBURG      CLOUDY    75  75 100 CALM      29.81S
6HR MIN TEMP:  71; 6HR MAX TEMP:  75;

BARABOO/DELLS  CLOUDY    74  72  91 SW7       29.82S
6HR MIN TEMP:  70; 6HR MAX TEMP:  74;

LONE ROCK      CLOUDY    77  74  90 SW3       29.82S
6HR MIN TEMP:  72; 6HR MAX TEMP:  77;

MINERAL POINT  CLOUDY    77  77 100 S8        29.85S FOG
MADISON        CLOUDY    75  72  90 S8        29.83S
6HR MIN TEMP:  71; 6HR MAX TEMP:  75;

MIDDLETON      CLOUDY    76  74  95 SW8       29.83F
6HR MIN TEMP:  72; 6HR MAX TEMP:  76; 6HR PCP:  0.01;

WATERTOWN      CLOUDY    74  74 100 S9        29.85S
6HR MIN TEMP:  69; 6HR MAX TEMP:  74; 6HR PCP:  0.01;

MONROE         CLOUDY    73  72  94 S13G20    29.85F FOG
JANESVILLE     PTSUNNY   75  73  94 S9        29.86S
$$

WIZ051-052-058>065-066-070>072-241300-
SOUTHEAST WISCONSIN

CITY           SKY/WX    TMP DP  RH WIND       PRES   REMARKS
MILWAUKEE      CLOUDY    75  71  87 S6        29.88R
6HR MIN TEMP:  73; 6HR MAX TEMP:  75; 6HR PCP:  0.03;

WAUKESHA       SUNNY     70  68  94 S6        29.89R
MILWAUKEE/TIMM CLOUDY    72  68  88 CALM      29.89R
RACINE         CLOUDY    74  70  87 S6        29.90R
6HR MIN TEMP:  72; 6HR MAX TEMP:  74;

BURLINGTON     CLOUDY    73  72  95 S9        29.88R
6HR MIN TEMP:  69; 6HR MAX TEMP:  73;

KENOSHA        CLOUDY    75  71  87 SW7       29.89R
6HR MIN TEMP:  71; 6HR MAX TEMP:  75;

FOND DU LAC    CLOUDY    74  71  91 S10       29.84S
6HR MIN TEMP:  72; 6HR MAX TEMP:  74; 6HR PCP: TRACE;

SHEBOYGAN      CLOUDY    71  68  90 S8        29.86S
6HR MIN TEMP:  69; 6HR MAX TEMP:  73; 6HR PCP:  0.21;

WEST BEND      CLOUDY    72  70  94 SE3       29.87F
JUNEAU         CLOUDY    71  70  97 S5        29.86S
6HR MIN TEMP:  69; 6HR MAX TEMP:  71; 6HR PCP:  0.10;

$$

LSZ147-162-241300-
LAKE SUPERIOR

STATION/POSITION TIME  TEMP    WIND        PRES    WAVE
                       AIR SEA DIR/SP/G            HT/PER
                 (UTC) (F)     (DEG/KT/KT) (MB)    (FT/S)
W MID LAKE BUOY  1150   62 57   90/  6/  8 1005.5F   1/ 3
DEVILS ISLAND    1100   68     250/  3/  3 1005.8F
PORT WING        1100   65     360/  5/  6 1006.8F
SAXON HARBOR     1120   70     280/  6/ 14 1007.1R
$$

LMZ867-665-643>646-241300-
LAKE MICHIGAN

STATION/POSITION TIME  TEMP    WIND        PRES    WAVE
                       AIR SEA DIR/SP/G            HT/PER
                 (UTC) (F)     (DEG/KT/KT) (MB)    (FT/S)
CHAMBERS ISLAND  1100   71     160/  5/  8 1009.8S
S GRC1F1C2F2C3F3C4F4C5F5C6F6C7F7C8M1C9M2Ca!


USA.gov is the U.S. government's official web portal to all federal, state and local government web resources and services.